Location: Croisilles
(50.1998°N, 2.8793°E)
Time: 02:00:33
(UTC+00:00)

H-2A R/B - Pass Details

Date: 21 January 2021
Orbit: 577 x 655 km, 98.5° (Epoch: 24 February)

Event Time Altitude Azimuth Distance (km) Brightness Sun altitude
Rises 17:07:07 0° 17° (NNE) 2,979 5.2 -7.0°
Reaches altitude 10° 17:09:23 10° 21° (NNE) 2,055 4.3 -7.3°
Maximum altitude 17:13:49 59° 102° (ESE) 737 2.2 -8.0°
Drops below altitude 10° 17:18:07 10° 182° (S) 1,996 5.0 -8.6°
Sets 17:20:18 0° 186° (S) 2,885 5.9 -9.0°
